AEROCUBE 8D

Last updated on Mon Sep 15 2025 00:03:49 GMT+0000 (Coordinated Universal Time)

1 41852U 16067E 25256.81841248 .00005788 00000+0 28111-3 0 9999 2 41852 98.1033 101.4037 0004324 27.5938 332.5524 15.18892623484037
UTC large
Height (km)
Speed (km/s)
/
Latitude / Longitude
Inclination (degrees)
Orbital Period (minutes)
Azimuth
Elevation
Range (km)
Doppler Factor

Next 0 passes for location: London (51.5072 / 0.1276)

Sorry there are no passes over London.